Time,TemperatureF,DewpointF,PressureIn,WindDirection,WindDirectionDegrees,WindSpeedMPH,WindSpeedGustMPH,Humidity,HourlyPrecipIn,Conditions,Clouds,dailyrainin,SoftwareType,DateUTC
2013-02-04 00:06:00,58.6,44.3,30.01,SE,139,13.0,13.0,59,0.00,,,0.00,Wunderground v.1.15,2013-02-04 06:06:00,
2013-02-04 00:11:00,58.4,44.1,30.01,SE,144,13.0,13.0,59,0.00,,,0.00,Wunderground v.1.15,2013-02-04 06:11:00,
2013-02-04 00:16:00,58.2,43.9,30.00,SE,136,12.0,12.0,59,0.00,,,0.00,Wunderground v.1.15,2013-02-04 06:16:00,
2013-02-04 00:21:00,58.0,44.2,30.00,SE,139,10.0,12.0,60,0.00,,,0.00,Wunderground v.1.15,2013-02-04 06:21:00,
2013-02-04 00:26:00,57.9,44.1,30.00,SE,132,9.0,9.0,60,0.00,,,0.00,Wunderground v.1.15,2013-02-04 06:26:00,
2013-02-04 00:31:00,57.8,44.0,30.00,SE,141,9.0,9.0,60,0.00,,,0.00,Wunderground v.1.15,2013-02-04 06:31:00,
2013-02-04 00:36:00,57.7,43.9,30.00,SE,136,9.0,10.0,60,0.00,,,0.00,Wunderground v.1.15,2013-02-04 06:36:00,
2013-02-04 00:41:00,57.7,43.9,30.00,SE,134,10.0,10.0,60,0.00,,,0.00,Wunderground v.1.15,2013-02-04 06:41:00,
2013-02-04 00:51:00,57.5,44.1,30.00,SE,131,11.0,13.0,61,0.00,,,0.00,Wunderground v.1.15,2013-02-04 06:51:00,
2013-02-04 00:56:00,57.5,44.1,30.00,SE,132,12.0,13.0,61,0.00,,,0.00,Wunderground v.1.15,2013-02-04 06:56:00,
2013-02-04 01:01:00,57.4,44.1,29.99,SE,142,12.0,14.0,61,0.00,,,0.00,Wunderground v.1.15,2013-02-04 07:01:00,
2013-02-04 01:06:00,57.3,44.4,29.99,SE,134,13.0,23.0,62,0.00,,,0.00,Wunderground v.1.15,2013-02-04 07:06:00,
2013-02-04 01:11:00,57.2,44.3,29.99,SSE,147,13.0,23.0,62,0.00,,,0.00,Wunderground v.1.15,2013-02-04 07:11:00,
2013-02-04 01:21:00,56.9,44.8,29.99,SE,140,13.0,23.0,64,0.00,,,0.00,Wunderground v.1.15,2013-02-04 07:21:00,
2013-02-04 01:26:00,56.9,45.3,29.99,SE,137,13.0,13.0,65,0.00,,,0.00,Wunderground v.1.15,2013-02-04 07:26:00,
2013-02-04 01:31:00,56.8,45.6,29.99,SE,141,13.0,23.0,66,0.00,,,0.00,Wunderground v.1.15,2013-02-04 07:31:00,
2013-02-04 01:36:00,56.8,46.0,29.99,SE,145,13.0,23.0,67,0.00,,,0.00,Wunderground v.1.15,2013-02-04 07:36:00,
2013-02-04 01:41:00,56.7,46.3,29.98,SSE,149,12.0,23.0,68,0.00,,,0.00,Wunderground v.1.15,2013-02-04 07:41:00,
2013-02-04 01:46:00,56.6,46.5,29.98,SE,143,13.0,23.0,69,0.00,,,0.00,Wunderground v.1.15,2013-02-04 07:46:00,
2013-02-04 01:51:00,56.5,46.8,29.97,SE,132,14.0,23.0,70,0.00,,,0.00,Wunderground v.1.15,2013-02-04 07:51:00,
2013-02-04 01:56:00,56.4,47.1,29.98,SSE,149,14.0,23.0,71,0.00,,,0.00,Wunderground v.1.15,2013-02-04 07:56:00,
2013-02-04 02:01:00,56.3,47.8,29.98,SE,139,14.0,23.0,73,0.00,,,0.00,Wunderground v.1.15,2013-02-04 08:01:00,
2013-02-04 02:06:00,56.2,47.7,29.98,SSE,149,13.0,13.0,73,0.00,,,0.00,Wunderground v.1.15,2013-02-04 08:06:00,
2013-02-04 02:11:00,56.1,48.3,29.98,SE,140,12.0,23.0,75,0.00,,,0.00,Wunderground v.1.15,2013-02-04 08:11:00,
2013-02-04 02:16:00,56.1,48.6,29.98,SE,134,13.0,23.0,76,0.00,,,0.00,Wunderground v.1.15,2013-02-04 08:16:00,
2013-02-04 02:26:00,56.0,49.6,29.97,SE,134,13.0,23.0,79,0.00,,,0.00,Wunderground v.1.15,2013-02-04 08:26:00,
2013-02-04 02:31:00,56.0,50.3,29.97,South,187,14.0,23.0,81,0.00,,,0.00,Wunderground v.1.15,2013-02-04 08:31:00,
2013-02-04 02:36:00,56.0,50.6,29.97,SSE,156,14.0,23.0,82,0.00,,,0.00,Wunderground v.1.15,2013-02-04 08:36:00,
2013-02-04 02:41:00,56.0,50.9,29.97,SSE,155,15.0,23.0,83,0.00,,,0.00,Wunderground v.1.15,2013-02-04 08:41:00,
2013-02-04 02:46:00,56.0,50.9,29.97,SSE,154,16.0,16.0,83,0.00,,,0.00,Wunderground v.1.15,2013-02-04 08:46:00,
2013-02-04 02:56:00,55.9,51.1,29.97,SSE,159,15.0,15.0,84,0.00,,,0.00,Wunderground v.1.15,2013-02-04 08:56:00,
2013-02-04 03:01:00,55.9,51.1,29.96,SSE,149,14.0,23.0,84,0.00,,,0.00,Wunderground v.1.15,2013-02-04 09:01:00,
2013-02-04 03:06:00,55.8,51.0,29.96,SSE,153,14.0,23.0,84,0.00,,,0.00,Wunderground v.1.15,2013-02-04 09:06:00,
2013-02-04 03:11:00,55.8,51.4,29.96,South,186,12.0,23.0,85,0.00,,,0.00,Wunderground v.1.15,2013-02-04 09:11:00,
2013-02-04 03:16:00,55.8,51.4,29.96,SSE,168,12.0,23.0,85,0.00,,,0.00,Wunderground v.1.15,2013-02-04 09:16:00,
2013-02-04 03:21:00,55.8,51.4,29.97,SSE,163,12.0,23.0,85,0.00,,,0.00,Wunderground v.1.15,2013-02-04 09:21:00,
2013-02-04 03:31:00,55.9,51.5,29.97,SSE,165,12.0,14.0,85,0.00,,,0.00,Wunderground v.1.15,2013-02-04 09:31:00,
2013-02-04 03:36:00,56.0,51.6,29.96,SSE,153,11.0,23.0,85,0.00,,,0.00,Wunderground v.1.15,2013-02-04 09:36:00,
2013-02-04 03:41:00,56.0,51.9,29.96,SSE,153,11.0,23.0,86,0.00,,,0.00,Wunderground v.1.15,2013-02-04 09:41:00,
2013-02-04 03:46:00,56.0,51.9,29.96,SE,137,11.0,11.0,86,0.00,,,0.00,Wunderground v.1.15,2013-02-04 09:46:00,
2013-02-04 03:51:00,56.0,51.9,29.95,SSE,155,11.0,15.0,86,0.00,,,0.00,Wunderground v.1.15,2013-02-04 09:51:00,
2013-02-04 04:01:00,56.0,51.9,29.96,South,172,10.0,23.0,86,0.00,,,0.00,Wunderground v.1.15,2013-02-04 10:01:00,
2013-02-04 04:06:00,56.0,51.9,29.96,SSE,154,10.0,23.0,86,0.00,,,0.00,Wunderground v.1.15,2013-02-04 10:06:00,
2013-02-04 04:11:00,56.0,51.9,29.96,South,169,10.0,23.0,86,0.00,,,0.00,Wunderground v.1.15,2013-02-04 10:11:00,
2013-02-04 04:16:00,56.0,51.9,29.96,SSE,165,10.0,10.0,86,0.00,,,0.00,Wunderground v.1.15,2013-02-04 10:16:00,
2013-02-04 04:21:00,56.0,52.2,29.95,SSE,158,9.0,23.0,87,0.00,,,0.00,Wunderground v.1.15,2013-02-04 10:21:00,
2013-02-04 04:26:00,56.0,52.2,29.95,SSE,153,9.0,23.0,87,0.00,,,0.00,Wunderground v.1.15,2013-02-04 10:26:00,
2013-02-04 04:31:00,56.1,52.3,29.95,SE,144,9.0,23.0,87,0.00,,,0.00,Wunderground v.1.15,2013-02-04 10:31:00,
2013-02-04 04:36:00,56.2,52.4,29.94,SE,141,10.0,23.0,87,0.00,,,0.00,Wunderground v.1.15,2013-02-04 10:36:00,
2013-02-04 04:41:00,56.2,52.4,29.94,SE,144,10.0,23.0,87,0.00,,,0.00,Wunderground v.1.15,2013-02-04 10:41:00,
2013-02-04 04:46:00,56.1,52.6,29.94,SE,144,10.0,23.0,88,0.00,,,0.00,Wunderground v.1.15,2013-02-04 10:46:00,
2013-02-04 04:51:00,56.2,52.7,29.94,SSE,147,11.0,23.0,88,0.00,,,0.00,Wunderground v.1.15,2013-02-04 10:51:00,
2013-02-04 05:01:00,56.2,52.7,29.94,SSE,149,12.0,23.0,88,0.00,,,0.00,Wunderground v.1.15,2013-02-04 11:01:00,
2013-02-04 05:06:00,56.2,52.7,29.94,SSE,147,12.0,12.0,88,0.00,,,0.00,Wunderground v.1.15,2013-02-04 11:06:00,
2013-02-04 05:11:00,56.2,52.7,29.94,SSE,164,11.0,15.0,88,0.00,,,0.00,Wunderground v.1.15,2013-02-04 11:11:00,
2013-02-04 05:16:00,56.3,52.8,29.94,SSE,157,12.0,12.0,88,0.00,,,0.00,Wunderground v.1.15,2013-02-04 11:16:00,
2013-02-04 05:21:00,56.3,52.8,29.94,SSE,160,12.0,23.0,88,0.00,,,0.00,Wunderground v.1.15,2013-02-04 11:21:00,
2013-02-04 05:26:00,56.2,53.0,29.93,SSE,153,12.0,12.0,89,0.00,,,0.00,Wunderground v.1.15,2013-02-04 11:26:00,
2013-02-04 05:36:00,56.2,53.0,29.93,SSE,159,13.0,23.0,89,0.00,,,0.00,Wunderground v.1.15,2013-02-04 11:36:00,
2013-02-04 05:41:00,56.2,53.3,29.93,SE,136,13.0,23.0,90,0.00,,,0.00,Wunderground v.1.15,2013-02-04 11:41:00,
2013-02-04 05:46:00,56.3,53.4,29.93,SSE,150,13.0,23.0,90,0.00,,,0.00,Wunderground v.1.15,2013-02-04 11:46:00,
2013-02-04 05:51:00,56.3,53.4,29.93,SSE,158,13.0,23.0,90,0.00,,,0.00,Wunderground v.1.15,2013-02-04 11:51:00,
2013-02-04 06:01:00,56.3,53.4,29.93,SSE,165,11.0,23.0,90,0.00,,,0.00,Wunderground v.1.15,2013-02-04 12:01:00,
2013-02-04 06:11:00,56.3,53.7,29.93,SSE,158,10.0,15.0,91,0.00,,,0.00,Wunderground v.1.15,2013-02-04 12:11:00,
2013-02-04 06:16:00,56.2,53.9,29.93,SSE,153,12.0,23.0,92,0.00,,,0.00,Wunderground v.1.15,2013-02-04 12:16:00,
2013-02-04 06:21:00,56.1,53.8,29.93,SSE,156,13.0,23.0,92,0.00,,,0.00,Wunderground v.1.15,2013-02-04 12:21:00,
2013-02-04 06:26:00,56.0,53.7,29.93,SSE,154,12.0,12.0,92,0.00,,,0.00,Wunderground v.1.15,2013-02-04 12:26:00,
2013-02-04 06:31:00,55.9,53.9,29.92,SSE,149,12.0,14.0,93,0.00,,,0.00,Wunderground v.1.15,2013-02-04 12:31:00,
2013-02-04 06:41:00,55.7,54.0,29.92,SSE,149,14.0,23.0,94,0.00,,,0.00,Wunderground v.1.15,2013-02-04 12:41:00,
2013-02-04 06:46:00,55.7,54.0,29.92,SSE,148,14.0,14.0,94,0.00,,,0.00,Wunderground v.1.15,2013-02-04 12:46:00,
2013-02-04 06:51:00,55.7,54.0,29.92,SSE,151,13.0,23.0,94,0.00,,,0.00,Wunderground v.1.15,2013-02-04 12:51:00,
2013-02-04 06:56:00,55.8,54.1,29.92,SSE,165,13.0,13.0,94,0.00,,,0.00,Wunderground v.1.15,2013-02-04 12:56:00,
2013-02-04 07:06:00,56.0,54.3,29.92,South,177,13.0,13.0,94,0.00,,,0.00,Wunderground v.1.15,2013-02-04 13:06:00,
2013-02-04 07:16:00,56.1,54.4,29.93,South,173,10.0,12.0,94,0.00,,,0.00,Wunderground v.1.15,2013-02-04 13:16:00,
2013-02-04 07:21:00,56.2,54.5,29.92,South,177,10.0,12.0,94,0.00,,,0.00,Wunderground v.1.15,2013-02-04 13:21:00,
2013-02-04 07:26:00,56.3,54.6,29.92,SSE,164,11.0,11.0,94,0.00,,,0.00,Wunderground v.1.15,2013-02-04 13:26:00,
2013-02-04 07:31:00,56.4,54.4,29.91,South,180,12.0,13.0,93,0.00,,,0.00,Wunderground v.1.15,2013-02-04 13:31:00,
2013-02-04 07:36:00,56.5,54.5,29.92,South,183,11.0,11.0,93,0.00,,,0.00,Wunderground v.1.15,2013-02-04 13:36:00,
2013-02-04 07:46:00,56.7,54.7,29.93,SSW,196,9.0,9.0,93,0.00,,,0.00,Wunderground v.1.15,2013-02-04 13:46:00,
2013-02-04 07:51:00,56.9,54.6,29.93,SSW,205,7.0,9.0,92,0.00,,,0.00,Wunderground v.1.15,2013-02-04 13:51:00,
2013-02-04 07:56:00,57.0,54.7,29.93,South,187,6.0,8.0,92,0.00,,,0.00,Wunderground v.1.15,2013-02-04 13:56:00,
2013-02-04 08:06:00,57.6,55.0,29.92,SSW,194,10.0,10.0,91,0.00,,,0.00,Wunderground v.1.15,2013-02-04 14:06:00,
2013-02-04 08:11:00,57.7,54.8,29.91,South,170,11.0,14.0,90,0.00,,,0.00,Wunderground v.1.15,2013-02-04 14:11:00,
2013-02-04 08:21:00,58.0,55.1,29.91,SSE,162,12.0,17.0,90,0.00,,,0.00,Wunderground v.1.15,2013-02-04 14:21:00,
2013-02-04 08:26:00,58.2,55.0,29.91,SSW,194,13.0,13.0,89,0.00,,,0.00,Wunderground v.1.15,2013-02-04 14:26:00,
2013-02-04 08:31:00,58.3,55.1,29.90,South,172,14.0,14.0,89,0.00,,,0.00,Wunderground v.1.15,2013-02-04 14:31:00,
2013-02-04 08:36:00,58.3,55.1,29.90,SSE,153,13.0,16.0,89,0.00,,,0.00,Wunderground v.1.15,2013-02-04 14:36:00,
2013-02-04 08:41:00,58.4,55.2,29.90,South,169,14.0,20.0,89,0.00,,,0.00,Wunderground v.1.15,2013-02-04 14:41:00,
2013-02-04 08:51:00,58.7,55.2,29.90,South,173,15.0,21.0,88,0.00,,,0.00,Wunderground v.1.15,2013-02-04 14:51:00,
2013-02-04 08:56:00,58.8,55.3,29.89,SE,140,15.0,16.0,88,0.00,,,0.00,Wunderground v.1.15,2013-02-04 14:56:00,
2013-02-04 09:06:00,59.3,55.4,29.90,South,180,16.0,16.0,87,0.00,,,0.00,Wunderground v.1.15,2013-02-04 15:06:00,
2013-02-04 09:11:00,59.4,55.5,29.90,South,177,15.0,18.0,87,0.00,,,0.00,Wunderground v.1.15,2013-02-04 15:11:00,
2013-02-04 09:16:00,59.6,55.7,29.91,SSW,205,16.0,16.0,87,0.00,,,0.00,Wunderground v.1.15,2013-02-04 15:16:00,
2013-02-04 09:26:00,60.0,55.8,29.91,SSW,207,15.0,19.0,86,0.00,,,0.00,Wunderground v.1.15,2013-02-04 15:26:00,
2013-02-04 09:31:00,60.1,55.9,29.91,SSW,197,16.0,19.0,86,0.00,,,0.00,Wunderground v.1.15,2013-02-04 15:31:00,
2013-02-04 09:36:00,60.4,56.2,29.91,SSW,207,17.0,17.0,86,0.00,,,0.00,Wunderground v.1.15,2013-02-04 15:36:00,
2013-02-04 09:41:00,60.5,56.3,29.92,South,191,16.0,18.0,86,0.00,,,0.00,Wunderground v.1.15,2013-02-04 15:41:00,
2013-02-04 09:46:00,60.7,56.2,29.91,South,184,16.0,23.0,85,0.00,,,0.00,Wunderground v.1.15,2013-02-04 15:46:00,
2013-02-04 09:51:00,61.0,56.1,29.91,SSW,197,18.0,23.0,84,0.00,,,0.00,Wunderground v.1.15,2013-02-04 15:51:00,
2013-02-04 09:56:00,61.3,56.4,29.91,SSW,193,19.0,19.0,84,0.00,,,0.00,Wunderground v.1.15,2013-02-04 15:56:00,
2013-02-04 10:06:00,61.7,56.5,29.92,South,178,18.0,18.0,83,0.00,,,0.01,Wunderground v.1.15,2013-02-04 16:06:00,
2013-02-04 10:11:00,62.1,56.5,29.92,South,180,18.0,22.0,82,0.00,,,0.01,Wunderground v.1.15,2013-02-04 16:11:00,
2013-02-04 10:16:00,62.7,57.1,29.92,SSW,196,18.0,22.0,82,0.00,,,0.01,Wunderground v.1.15,2013-02-04 16:16:00,
2013-02-04 10:21:00,62.6,56.3,29.92,SSW,196,18.0,22.0,80,0.00,,,0.01,Wunderground v.1.15,2013-02-04 16:21:00,
2013-02-04 10:26:00,62.6,56.3,29.92,SSW,203,20.0,20.0,80,0.00,,,0.01,Wunderground v.1.15,2013-02-04 16:26:00,
2013-02-04 10:31:00,62.9,56.3,29.92,SSW,204,21.0,21.0,79,0.00,,,0.01,Wunderground v.1.15,2013-02-04 16:31:00,
2013-02-04 10:36:00,63.2,57.3,29.92,South,186,21.0,21.0,81,0.00,,,0.01,Wunderground v.1.15,2013-02-04 16:36:00,
2013-02-04 10:41:00,63.3,56.3,29.91,SSW,196,19.0,22.0,78,0.00,,,0.01,Wunderground v.1.15,2013-02-04 16:41:00,
2013-02-04 10:46:00,63.3,56.7,29.91,South,189,19.0,19.0,79,0.00,,,0.01,Wunderground v.1.15,2013-02-04 16:46:00,
2013-02-04 10:51:00,63.6,56.6,29.91,SSW,194,20.0,20.0,78,0.00,,,0.01,Wunderground v.1.15,2013-02-04 16:51:00,
2013-02-04 10:56:00,63.7,56.7,29.91,South,173,20.0,20.0,78,0.00,,,0.01,Wunderground v.1.15,2013-02-04 16:56:00,
2013-02-04 11:06:00,63.7,56.4,29.91,South,179,20.0,20.0,77,0.00,,,0.01,Wunderground v.1.15,2013-02-04 17:06:00,
2013-02-04 11:11:00,63.9,56.9,29.91,South,183,20.0,20.0,78,0.00,,,0.01,Wunderground v.1.15,2013-02-04 17:11:00,
2013-02-04 11:16:00,64.5,57.5,29.91,SSW,201,19.0,19.0,78,0.00,,,0.01,Wunderground v.1.15,2013-02-04 17:16:00,
2013-02-04 11:21:00,64.9,56.8,29.91,South,184,19.0,21.0,75,0.00,,,0.01,Wunderground v.1.15,2013-02-04 17:21:00,
2013-02-04 11:31:00,65.3,57.5,29.91,SSW,195,19.0,20.0,76,0.00,,,0.01,Wunderground v.1.15,2013-02-04 17:31:00,
2013-02-04 11:36:00,65.3,56.8,29.91,SSW,193,19.0,19.0,74,0.00,,,0.01,Wunderground v.1.15,2013-02-04 17:36:00,
2013-02-04 11:41:00,65.4,56.9,29.90,SSW,213,18.0,19.0,74,0.00,,,0.01,Wunderground v.1.15,2013-02-04 17:41:00,
2013-02-04 11:46:00,65.8,56.9,29.90,SSW,209,16.0,16.0,73,0.00,,,0.01,Wunderground v.1.15,2013-02-04 17:46:00,
2013-02-04 11:51:00,65.9,57.0,29.90,South,185,16.0,16.0,73,0.00,,,0.01,Wunderground v.1.15,2013-02-04 17:51:00,
2013-02-04 11:56:00,65.9,57.4,29.90,SSW,200,16.0,16.0,74,0.00,,,0.01,Wunderground v.1.15,2013-02-04 17:56:00,
2013-02-04 12:06:00,66.0,57.1,29.90,SSW,194,12.0,14.0,73,0.00,,,0.01,Wunderground v.1.15,2013-02-04 18:06:00,
2013-02-04 12:11:00,66.0,56.7,29.90,SW,218,13.0,14.0,72,0.00,,,0.01,Wunderground v.1.15,2013-02-04 18:11:00,
2013-02-04 12:16:00,66.1,56.8,29.89,SSW,194,13.0,14.0,72,0.00,,,0.01,Wunderground v.1.15,2013-02-04 18:16:00,
2013-02-04 12:21:00,66.5,57.2,29.89,South,191,13.0,14.0,72,0.00,,,0.01,Wunderground v.1.15,2013-02-04 18:21:00,
2013-02-04 12:26:00,66.4,56.7,29.89,SSW,213,12.0,12.0,71,0.00,,,0.01,Wunderground v.1.15,2013-02-04 18:26:00,
2013-02-04 12:31:00,66.7,57.0,29.89,SW,222,13.0,13.0,71,0.00,,,0.01,Wunderground v.1.15,2013-02-04 18:31:00,
2013-02-04 12:36:00,67.0,56.9,29.88,SSW,200,14.0,15.0,70,0.00,,,0.01,Wunderground v.1.15,2013-02-04 18:36:00,
2013-02-04 12:41:00,67.2,57.5,29.88,SSW,201,14.0,15.0,71,0.00,,,0.01,Wunderground v.1.15,2013-02-04 18:41:00,
2013-02-04 12:46:00,67.4,56.9,29.88,SSW,207,12.0,12.0,69,0.00,,,0.01,Wunderground v.1.15,2013-02-04 18:46:00,
2013-02-04 12:51:00,67.9,56.9,29.88,SSW,201,11.0,13.0,68,0.00,,,0.01,Wunderground v.1.15,2013-02-04 18:51:00,
2013-02-04 12:56:00,68.1,57.1,29.87,SSW,201,12.0,12.0,68,0.00,,,0.01,Wunderground v.1.15,2013-02-04 18:56:00,
2013-02-04 13:06:00,68.6,56.8,29.86,South,169,13.0,13.0,66,0.00,,,0.01,Wunderground v.1.15,2013-02-04 19:06:00,
2013-02-04 13:11:00,68.4,56.6,29.86,South,175,14.0,17.0,66,0.00,,,0.01,Wunderground v.1.15,2013-02-04 19:11:00,
2013-02-04 13:21:00,69.3,55.7,29.85,South,177,12.0,14.0,62,0.00,,,0.01,Wunderground v.1.15,2013-02-04 19:21:00,
2013-02-04 13:26:00,69.6,56.0,29.85,SSW,208,13.0,13.0,62,0.00,,,0.01,Wunderground v.1.15,2013-02-04 19:26:00,
2013-02-04 13:31:00,70.1,56.9,29.84,South,185,13.0,19.0,63,0.00,,,0.01,Wunderground v.1.15,2013-02-04 19:31:00,
2013-02-04 13:36:00,70.3,55.8,29.85,South,183,12.0,14.0,60,0.00,,,0.01,Wunderground v.1.15,2013-02-04 19:36:00,
2013-02-04 13:41:00,70.3,55.8,29.84,SSW,207,13.0,14.0,60,0.00,,,0.01,Wunderground v.1.15,2013-02-04 19:41:00,
2013-02-04 13:46:00,70.0,55.5,29.84,SW,226,12.0,12.0,60,0.00,,,0.01,Wunderground v.1.15,2013-02-04 19:46:00,
2013-02-04 13:51:00,70.3,55.3,29.84,SW,222,12.0,12.0,59,0.00,,,0.01,Wunderground v.1.15,2013-02-04 19:51:00,
2013-02-04 13:56:00,70.5,54.5,29.83,SW,231,13.0,13.0,57,0.00,,,0.01,Wunderground v.1.15,2013-02-04 19:56:00,
2013-02-04 14:06:00,70.8,54.8,29.83,SW,218,11.0,11.0,57,0.00,,,0.01,Wunderground v.1.15,2013-02-04 20:06:00,
2013-02-04 14:11:00,70.7,54.2,29.83,SW,220,12.0,12.0,56,0.00,,,0.01,Wunderground v.1.15,2013-02-04 20:11:00,
2013-02-04 14:16:00,70.5,54.5,29.83,SW,215,11.0,11.0,57,0.00,,,0.01,Wunderground v.1.15,2013-02-04 20:16:00,
2013-02-04 14:21:00,70.8,54.3,29.82,South,189,10.0,14.0,56,0.00,,,0.01,Wunderground v.1.15,2013-02-04 20:21:00,
2013-02-04 14:26:00,70.9,54.4,29.82,SW,235,10.0,11.0,56,0.00,,,0.01,Wunderground v.1.15,2013-02-04 20:26:00,
2013-02-04 14:31:00,71.1,54.1,29.82,SW,232,11.0,15.0,55,0.00,,,0.01,Wunderground v.1.15,2013-02-04 20:31:00,
2013-02-04 14:36:00,71.0,54.5,29.82,SSW,211,11.0,11.0,56,0.00,,,0.01,Wunderground v.1.15,2013-02-04 20:36:00,
2013-02-04 14:46:00,71.2,53.7,29.81,South,184,9.0,11.0,54,0.00,,,0.01,Wunderground v.1.15,2013-02-04 20:46:00,
2013-02-04 14:51:00,71.2,54.2,29.81,SSE,149,10.0,11.0,55,0.00,,,0.01,Wunderground v.1.15,2013-02-04 20:51:00,
2013-02-04 14:56:00,72.0,53.4,29.81,SSW,204,9.0,11.0,52,0.00,,,0.01,Wunderground v.1.15,2013-02-04 20:56:00,
2013-02-04 15:06:00,72.2,54.1,29.81,SSW,204,9.0,9.0,53,0.00,,,0.01,Wunderground v.1.15,2013-02-04 21:06:00,
2013-02-04 15:11:00,71.9,53.8,29.81,SW,232,8.0,9.0,53,0.00,,,0.01,Wunderground v.1.15,2013-02-04 21:11:00,
2013-02-04 15:16:00,71.7,53.7,29.80,South,170,7.0,7.0,53,0.00,,,0.01,Wunderground v.1.15,2013-02-04 21:16:00,
2013-02-04 15:21:00,71.8,53.7,29.80,South,169,6.0,7.0,53,0.00,,,0.01,Wunderground v.1.15,2013-02-04 21:21:00,
2013-02-04 15:26:00,72.2,53.1,29.80,SW,222,8.0,9.0,51,0.00,,,0.01,Wunderground v.1.15,2013-02-04 21:26:00,
2013-02-04 15:31:00,72.1,53.5,29.80,South,183,9.0,11.0,52,0.00,,,0.01,Wunderground v.1.15,2013-02-04 21:31:00,
2013-02-04 15:36:00,72.4,53.8,29.80,SW,215,9.0,9.0,52,0.00,,,0.01,Wunderground v.1.15,2013-02-04 21:36:00,
2013-02-04 15:46:00,73.1,53.4,29.80,South,172,7.0,8.0,50,0.00,,,0.01,Wunderground v.1.15,2013-02-04 21:46:00,
2013-02-04 15:51:00,73.4,53.6,29.80,SSW,209,6.0,8.0,50,0.00,,,0.01,Wunderground v.1.15,2013-02-04 21:51:00,
2013-02-04 15:56:00,73.1,53.4,29.80,SW,233,7.0,7.0,50,0.00,,,0.01,Wunderground v.1.15,2013-02-04 21:56:00,
2013-02-04 16:06:00,73.2,53.4,29.80,SSW,204,6.0,6.0,50,0.00,,,0.01,Wunderground v.1.15,2013-02-04 22:06:00,
2013-02-04 16:11:00,73.6,53.3,29.80,SSW,213,7.0,11.0,49,0.00,,,0.01,Wunderground v.1.15,2013-02-04 22:11:00,
2013-02-04 16:21:00,73.2,51.8,29.80,SW,233,8.0,9.0,47,0.00,,,0.01,Wunderground v.1.15,2013-02-04 22:21:00,
2013-02-04 16:26:00,73.1,52.2,29.80,SW,229,9.0,9.0,48,0.00,,,0.01,Wunderground v.1.15,2013-02-04 22:26:00,
2013-02-04 16:31:00,73.2,52.3,29.80,WSW,238,7.0,9.0,48,0.00,,,0.01,Wunderground v.1.15,2013-02-04 22:31:00,
2013-02-04 16:36:00,73.9,53.5,29.80,South,176,4.0,4.0,49,0.00,,,0.01,Wunderground v.1.15,2013-02-04 22:36:00,
2013-02-04 16:41:00,73.6,52.7,29.80,SSW,213,5.0,5.0,48,0.00,,,0.01,Wunderground v.1.15,2013-02-04 22:41:00,
2013-02-04 16:51:00,72.7,52.4,29.80,SSW,201,7.0,9.0,49,0.00,,,0.01,Wunderground v.1.15,2013-02-04 22:51:00,
2013-02-04 16:56:00,72.4,52.2,29.80,SW,235,7.0,7.0,49,0.00,,,0.01,Wunderground v.1.15,2013-02-04 22:56:00,
2013-02-04 17:06:00,73.1,52.2,29.80,SW,220,6.0,6.0,48,0.00,,,0.01,Wunderground v.1.15,2013-02-04 23:06:00,
2013-02-04 17:11:00,73.3,52.4,29.80,SW,227,7.0,7.0,48,0.00,,,0.01,Wunderground v.1.15,2013-02-04 23:11:00,
2013-02-04 17:21:00,73.3,52.4,29.80,SSW,207,5.0,6.0,48,0.00,,,0.01,Wunderground v.1.15,2013-02-04 23:21:00,
2013-02-04 17:26:00,73.0,52.1,29.80,SSW,204,6.0,8.0,48,0.00,,,0.01,Wunderground v.1.15,2013-02-04 23:26:00,
2013-02-04 17:31:00,72.9,52.1,29.80,SSW,200,7.0,8.0,48,0.00,,,0.01,Wunderground v.1.15,2013-02-04 23:31:00,
2013-02-04 17:41:00,72.2,52.0,29.80,South,185,7.0,7.0,49,0.00,,,0.01,Wunderground v.1.15,2013-02-04 23:41:00,
2013-02-04 17:46:00,72.1,51.9,29.81,South,182,7.0,7.0,49,0.00,,,0.01,Wunderground v.1.15,2013-02-04 23:46:00,
2013-02-04 17:51:00,71.7,52.1,29.81,South,191,7.0,7.0,50,0.00,,,0.01,Wunderground v.1.15,2013-02-04 23:51:00,
2013-02-04 17:56:00,71.3,52.2,29.80,South,175,6.0,6.0,51,0.00,,,0.01,Wunderground v.1.15,2013-02-04 23:56:00,
2013-02-04 18:06:00,70.2,52.3,29.81,South,183,5.0,5.0,53,0.00,,,0.01,Wunderground v.1.15,2013-02-05 00:06:00,
2013-02-04 18:11:00,69.5,52.1,29.81,South,182,5.0,5.0,54,0.00,,,0.01,Wunderground v.1.15,2013-02-05 00:11:00,
2013-02-04 18:16:00,68.9,52.1,29.81,South,189,4.0,4.0,55,0.00,,,0.01,Wunderground v.1.15,2013-02-05 00:16:00,
2013-02-04 18:21:00,68.3,51.5,29.81,SSW,194,4.0,5.0,55,0.00,,,0.01,Wunderground v.1.15,2013-02-05 00:21:00,
2013-02-04 18:26:00,67.9,51.6,29.82,SSW,193,5.0,6.0,56,0.00,,,0.01,Wunderground v.1.15,2013-02-05 00:26:00,
2013-02-04 18:31:00,67.5,51.7,29.82,South,190,5.0,7.0,57,0.00,,,0.01,Wunderground v.1.15,2013-02-05 00:31:00,
2013-02-04 18:36:00,67.2,51.9,29.82,South,181,6.0,6.0,58,0.00,,,0.01,Wunderground v.1.15,2013-02-05 00:36:00,
2013-02-04 18:41:00,66.7,52.4,29.82,South,169,6.0,6.0,60,0.00,,,0.01,Wunderground v.1.15,2013-02-05 00:41:00,
2013-02-04 18:46:00,66.3,52.4,29.82,SSE,165,5.0,5.0,61,0.00,,,0.01,Wunderground v.1.15,2013-02-05 00:46:00,
2013-02-04 18:56:00,64.9,52.4,29.83,SE,132,2.0,2.0,64,0.00,,,0.01,Wunderground v.1.15,2013-02-05 00:56:00,
2013-02-04 19:06:00,64.3,52.7,29.83,SE,133,2.0,2.0,66,0.00,,,0.01,Wunderground v.1.15,2013-02-05 01:06:00,
2013-02-04 19:11:00,64.0,52.8,29.83,SE,132,2.0,2.0,67,0.00,,,0.01,Wunderground v.1.15,2013-02-05 01:11:00,
2013-02-04 19:16:00,64.0,53.2,29.84,SE,136,3.0,3.0,68,0.00,,,0.01,Wunderground v.1.15,2013-02-05 01:16:00,
2013-02-04 19:21:00,64.0,53.6,29.84,SE,139,3.0,3.0,69,0.00,,,0.01,Wunderground v.1.15,2013-02-05 01:21:00,
2013-02-04 19:31:00,63.8,53.4,29.84,SSE,149,2.0,3.0,69,0.00,,,0.01,Wunderground v.1.15,2013-02-05 01:31:00,
2013-02-04 19:36:00,63.7,53.7,29.85,SSE,149,2.0,2.0,70,0.00,,,0.01,Wunderground v.1.15,2013-02-05 01:36:00,
2013-02-04 19:41:00,63.5,53.5,29.85,SSE,153,2.0,3.0,70,0.00,,,0.01,Wunderground v.1.15,2013-02-05 01:41:00,
2013-02-04 19:46:00,63.1,53.5,29.85,SSE,153,2.0,2.0,71,0.00,,,0.01,Wunderground v.1.15,2013-02-05 01:46:00,
2013-02-04 19:51:00,62.7,53.5,29.85,SSW,198,2.0,2.0,72,0.00,,,0.01,Wunderground v.1.15,2013-02-05 01:51:00,
2013-02-04 20:01:00,61.6,52.9,29.85,South,186,3.0,8.0,73,0.00,,,0.01,Wunderground v.1.15,2013-02-05 02:01:00,
2013-02-04 20:06:00,61.0,52.7,29.85,SSW,196,3.0,8.0,74,0.00,,,0.01,Wunderground v.1.15,2013-02-05 02:06:00,
2013-02-04 20:11:00,60.8,52.8,29.86,South,189,3.0,8.0,75,0.00,,,0.01,Wunderground v.1.15,2013-02-05 02:11:00,
2013-02-04 20:21:00,59.8,52.6,29.86,South,187,1.0,8.0,77,0.00,,,0.01,Wunderground v.1.15,2013-02-05 02:21:00,
2013-02-04 20:31:00,59.3,52.4,29.86,South,172,1.0,8.0,78,0.00,,,0.01,Wunderground v.1.15,2013-02-05 02:31:00,
2013-02-04 20:36:00,59.3,52.4,29.86,SE,146,2.0,8.0,78,0.00,,,0.01,Wunderground v.1.15,2013-02-05 02:36:00,
2013-02-04 20:41:00,59.6,52.7,29.87,SSE,149,3.0,8.0,78,0.00,,,0.01,Wunderground v.1.15,2013-02-05 02:41:00,
2013-02-04 20:46:00,59.9,53.0,29.86,South,173,3.0,8.0,78,0.00,,,0.01,Wunderground v.1.15,2013-02-05 02:46:00,
2013-02-04 20:51:00,60.0,52.8,29.87,South,172,4.0,8.0,77,0.00,,,0.01,Wunderground v.1.15,2013-02-05 02:51:00,
2013-02-04 20:56:00,59.7,52.5,29.87,South,169,4.0,8.0,77,0.00,,,0.01,Wunderground v.1.15,2013-02-05 02:56:00,
2013-02-04 21:01:00,59.2,52.3,29.87,SE,144,4.0,8.0,78,0.00,,,0.01,Wunderground v.1.15,2013-02-05 03:01:00,
2013-02-04 21:06:00,58.6,52.1,29.87,South,172,4.0,4.0,79,0.00,,,0.01,Wunderground v.1.15,2013-02-05 03:06:00,
2013-02-04 21:11:00,58.1,52.0,29.87,South,189,4.0,8.0,80,0.00,,,0.01,Wunderground v.1.15,2013-02-05 03:11:00,
2013-02-04 21:16:00,57.9,51.8,29.87,South,184,4.0,8.0,80,0.00,,,0.01,Wunderground v.1.15,2013-02-05 03:16:00,
2013-02-04 21:21:00,57.8,52.0,29.87,South,186,4.0,8.0,81,0.00,,,0.01,Wunderground v.1.15,2013-02-05 03:21:00,
2013-02-04 21:26:00,58.0,52.2,29.87,South,180,4.0,8.0,81,0.00,,,0.01,Wunderground v.1.15,2013-02-05 03:26:00,
2013-02-04 21:31:00,58.2,52.1,29.87,South,187,4.0,8.0,80,0.00,,,0.01,Wunderground v.1.15,2013-02-05 03:31:00,
2013-02-04 21:41:00,57.6,51.8,29.88,SSE,162,3.0,8.0,81,0.00,,,0.01,Wunderground v.1.15,2013-02-05 03:41:00,
2013-02-04 21:46:00,58.1,52.6,29.87,SSE,168,4.0,8.0,82,0.00,,,0.01,Wunderground v.1.15,2013-02-05 03:46:00,
2013-02-04 21:51:00,58.4,52.6,29.87,SSE,161,5.0,8.0,81,0.00,,,0.01,Wunderground v.1.15,2013-02-05 03:51:00,
2013-02-04 21:56:00,58.7,53.2,29.87,SSE,163,5.0,8.0,82,0.00,,,0.01,Wunderground v.1.15,2013-02-05 03:56:00,
2013-02-04 22:01:00,59.1,53.3,29.87,South,176,5.0,8.0,81,0.00,,,0.01,Wunderground v.1.15,2013-02-05 04:01:00,
2013-02-04 22:11:00,59.3,53.1,29.88,South,170,6.0,8.0,80,0.00,,,0.01,Wunderground v.1.15,2013-02-05 04:11:00,
2013-02-04 22:16:00,58.9,52.7,29.88,South,170,5.0,5.0,80,0.00,,,0.01,Wunderground v.1.15,2013-02-05 04:16:00,
2013-02-04 22:21:00,58.6,52.8,29.88,South,170,4.0,8.0,81,0.00,,,0.01,Wunderground v.1.15,2013-02-05 04:21:00,
2013-02-04 22:26:00,58.3,52.5,29.88,South,186,4.0,4.0,81,0.00,,,0.01,Wunderground v.1.15,2013-02-05 04:26:00,
2013-02-04 22:31:00,58.4,52.9,29.88,South,187,4.0,5.0,82,0.00,,,0.01,Wunderground v.1.15,2013-02-05 04:31:00,
2013-02-04 22:36:00,59.0,53.2,29.87,South,184,4.0,8.0,81,0.00,,,0.01,Wunderground v.1.15,2013-02-05 04:36:00,
2013-02-04 22:46:00,58.0,52.5,29.87,South,172,4.0,8.0,82,0.00,,,0.01,Wunderground v.1.15,2013-02-05 04:46:00,
2013-02-04 22:51:00,57.6,52.1,29.87,South,170,4.0,8.0,82,0.00,,,0.01,Wunderground v.1.15,2013-02-05 04:51:00,
2013-02-04 22:56:00,57.3,52.2,29.87,SSE,153,4.0,4.0,83,0.00,,,0.01,Wunderground v.1.15,2013-02-05 04:56:00,
2013-02-04 23:01:00,57.1,52.3,29.87,SSE,153,3.0,8.0,84,0.00,,,0.01,Wunderground v.1.15,2013-02-05 05:01:00,
2013-02-04 23:06:00,56.9,52.1,29.87,SSE,159,3.0,8.0,84,0.00,,,0.01,Wunderground v.1.15,2013-02-05 05:06:00,
2013-02-04 23:16:00,56.8,52.3,29.87,SE,134,3.0,8.0,85,0.00,,,0.01,Wunderground v.1.15,2013-02-05 05:16:00,
2013-02-04 23:21:00,57.0,52.5,29.87,SE,143,3.0,8.0,85,0.00,,,0.01,Wunderground v.1.15,2013-02-05 05:21:00,
2013-02-04 23:26:00,57.3,52.8,29.87,SE,140,3.0,8.0,85,0.00,,,0.01,Wunderground v.1.15,2013-02-05 05:26:00,
2013-02-04 23:31:00,57.5,53.0,29.87,SSE,149,3.0,8.0,85,0.00,,,0.01,Wunderground v.1.15,2013-02-05 05:31:00,
2013-02-04 23:36:00,57.6,52.8,29.86,SSE,153,3.0,8.0,84,0.00,,,0.01,Wunderground v.1.15,2013-02-05 05:36:00,
2013-02-04 23:41:00,57.2,52.4,29.86,SE,146,4.0,8.0,84,0.00,,,0.01,Wunderground v.1.15,2013-02-05 05:41:00,
2013-02-04 23:51:00,56.3,52.5,29.86,SE,146,3.0,8.0,87,0.00,,,0.00,Wunderground v.1.15,2013-02-05 05:51:00,
2013-02-04 23:56:00,56.5,53.0,29.86,SSE,158,3.0,3.0,88,0.00,,,0.00,Wunderground v.1.15,2013-02-05 05:56:00,